iso_date,epoch_date,Year,Hour,Min,DOY,POS_DOY,Lat,Lon,BP,Ts,Ta,has_bp,has_ts,has_ta,BuoyID,Buoy_Type,Buoy_Owner,Logistics,Hemisphere
2020-03-02T06:00:00Z,1583128800,2020,6,0,62.25,62.25,64.283,-10.719,-999.00,7.78,-999.0,no,yes,no,300234066316020,SVPVHI,AOML,BJARNI_SAEMUN,North
2020-03-02T09:00:00Z,1583139600,2020,9,0,62.375,62.375,64.272,-10.845,-999.00,7.53,-999.0,no,yes,no,300234066316020,SVPVHI,AOML,BJARNI_SAEMUN,North
2020-03-02T12:00:00Z,1583150400,2020,12,0,62.5,62.5,64.28,-10.924,-999.00,7.39,-999.0,no,yes,no,300234066316020,SVPVHI,AOML,BJARNI_SAEMUN,North
2020-03-02T15:00:00Z,1583161200,2020,15,0,62.625,62.625,64.292,-10.963,-999.00,7.19,-999.0,no,yes,no,300234066316020,SVPVHI,AOML,BJARNI_SAEMUN,North
2020-03-02T18:00:00Z,1583172000,2020,18,0,62.75,62.75,64.274,-11.036,-999.00,7.21,-999.0,no,yes,no,300234066316020,SVPVHI,AOML,BJARNI_SAEMUN,North
2020-03-02T21:00:00Z,1583182800,2020,21,0,62.875,62.875,64.235,-11.168,-999.00,7.18,-999.0,no,yes,no,300234066316020,SVPVHI,AOML,BJARNI_SAEMUN,North
2020-03-03T00:00:00Z,1583193600,2020,0,0,63.0,63.0,64.211,-11.295,-999.00,7.16,-999.0,no,yes,no,300234066316020,SVPVHI,AOML,BJARNI_SAEMUN,North
2020-03-03T03:00:00Z,1583204400,2020,3,0,63.125,63.125,64.192,-11.363,-999.00,7.09,-999.0,no,yes,no,300234066316020,SVPVHI,AOML,BJARNI_SAEMUN,North
2020-03-03T06:00:00Z,1583215200,2020,6,0,63.25,63.25,64.179,-11.45,-999.00,7.18,-999.0,no,yes,no,300234066316020,SVPVHI,AOML,BJARNI_SAEMUN,North
2020-03-03T09:00:00Z,1583226000,2020,9,0,63.375,63.375,64.195,-11.558,-999.00,7.06,-999.0,no,yes,no,300234066316020,SVPVHI,AOML,BJARNI_SAEMUN,North
2020-03-03T12:00:00Z,1583236800,2020,12,0,63.5,63.5,64.221,-11.607,-999.00,6.95,-999.0,no,yes,no,300234066316020,SVPVHI,AOML,BJARNI_SAEMUN,North
2020-03-03T15:00:00Z,1583247600,2020,15,0,63.625,63.625,64.257,-11.583,-999.00,7.0,-999.0,no,yes,no,300234066316020,SVPVHI,AOML,BJARNI_SAEMUN,North
2020-03-03T18:00:00Z,1583258400,2020,18,0,63.75,63.75,64.282,-11.481,-999.00,6.98,-999.0,no,yes,no,300234066316020,SVPVHI,AOML,BJARNI_SAEMUN,North
2020-03-03T20:46:01Z,1583268362,2020,20,46,63.8653,63.8653,64.29,-11.409,-999.00,7.03,-999.0,no,yes,no,300234066316020,SVPVHI,AOML,BJARNI_SAEMUN,North
2020-03-04T00:00:00Z,1583280000,2020,0,0,64.0,64.0,64.304,-11.364,-999.00,7.06,-999.0,no,yes,no,300234066316020,SVPVHI,AOML,BJARNI_SAEMUN,North
2020-03-04T03:00:00Z,1583290800,2020,3,0,64.125,64.125,64.325,-11.286,-999.00,7.05,-999.0,no,yes,no,300234066316020,SVPVHI,AOML,BJARNI_SAEMUN,North
2020-03-04T06:00:00Z,1583301600,2020,6,0,64.25,64.25,64.352,-11.206,-999.00,7.18,-999.0,no,yes,no,300234066316020,SVPVHI,AOML,BJARNI_SAEMUN,North
2020-03-04T09:00:00Z,1583312400,2020,9,0,64.375,64.375,64.361,-11.145,-999.00,7.28,-999.0,no,yes,no,300234066316020,SVPVHI,AOML,BJARNI_SAEMUN,North
2020-03-04T12:00:00Z,1583323200,2020,12,0,64.5,64.5,64.359,-11.093,-999.00,7.54,-999.0,no,yes,no,300234066316020,SVPVHI,AOML,BJARNI_SAEMUN,North
2020-03-04T15:00:00Z,1583334000,2020,15,0,64.625,64.625,64.388,-11.018,-999.00,7.45,-999.0,no,yes,no,300234066316020,SVPVHI,AOML,BJARNI_SAEMUN,North
2020-03-04T18:00:00Z,1583344800,2020,18,0,64.75,64.75,64.391,-10.921,-999.00,7.45,-999.0,no,yes,no,300234066316020,SVPVHI,AOML,BJARNI_SAEMUN,North
2020-03-04T21:00:00Z,1583355600,2020,21,0,64.875,64.875,64.373,-10.854,-999.00,7.41,-999.0,no,yes,no,300234066316020,SVPVHI,AOML,BJARNI_SAEMUN,North
2020-03-05T00:00:00Z,1583366400,2020,0,0,65.0,65.0,64.381,-10.833,-999.00,7.7,-999.0,no,yes,no,300234066316020,SVPVHI,AOML,BJARNI_SAEMUN,North
2020-03-05T03:00:00Z,1583377200,2020,3,0,65.125,65.125,64.431,-10.785,-999.00,7.8,-999.0,no,yes,no,300234066316020,SVPVHI,AOML,BJARNI_SAEMUN,North
2020-03-05T06:00:00Z,1583388000,2020,6,0,65.25,65.25,64.472,-10.671,-999.00,7.74,-999.0,no,yes,no,300234066316020,SVPVHI,AOML,BJARNI_SAEMUN,North
2020-03-05T09:00:00Z,1583398800,2020,9,0,65.375,65.375,64.475,-10.543,-999.00,7.76,-999.0,no,yes,no,300234066316020,SVPVHI,AOML,BJARNI_SAEMUN,North
2020-03-05T12:00:00Z,1583409600,2020,12,0,65.5,65.5,64.457,-10.486,-999.00,7.82,-999.0,no,yes,no,300234066316020,SVPVHI,AOML,BJARNI_SAEMUN,North
2020-03-05T15:00:00Z,1583420400,2020,15,0,65.625,65.625,64.463,-10.358,-999.00,7.82,-999.0,no,yes,no,300234066316020,SVPVHI,AOML,BJARNI_SAEMUN,North
2020-03-05T18:00:00Z,1583431200,2020,18,0,65.75,65.75,64.473,-10.205,-999.00,7.77,-999.0,no,yes,no,300234066316020,SVPVHI,AOML,BJARNI_SAEMUN,North
2020-03-05T21:00:00Z,1583442000,2020,21,0,65.875,65.875,64.463,-10.095,-999.00,7.84,-999.0,no,yes,no,300234066316020,SVPVHI,AOML,BJARNI_SAEMUN,North
2020-03-06T00:00:00Z,1583452800,2020,0,0,66.0,66.0,64.441,-10.056,-999.00,7.76,-999.0,no,yes,no,300234066316020,SVPVHI,AOML,BJARNI_SAEMUN,North
2020-03-06T03:00:00Z,1583463600,2020,3,0,66.125,66.125,64.43,-10.056,-999.00,7.78,-999.0,no,yes,no,300234066316020,SVPVHI,AOML,BJARNI_SAEMUN,North
2020-03-06T06:00:00Z,1583474400,2020,6,0,66.25,66.25,64.43,-10.021,-999.00,7.82,-999.0,no,yes,no,300234066316020,SVPVHI,AOML,BJARNI_SAEMUN,North
2020-03-06T09:00:00Z,1583485200,2020,9,0,66.375,66.375,64.4,-9.967,-999.00,7.82,-999.0,no,yes,no,300234066316020,SVPVHI,AOML,BJARNI_SAEMUN,North
2020-03-06T12:00:00Z,1583496000,2020,12,0,66.5,66.5,64.36,-9.944,-999.00,7.85,-999.0,no,yes,no,300234066316020,SVPVHI,AOML,BJARNI_SAEMUN,North
2020-03-06T15:00:00Z,1583506800,2020,15,0,66.625,66.625,64.327,-9.944,-999.00,7.83,-999.0,no,yes,no,300234066316020,SVPVHI,AOML,BJARNI_SAEMUN,North
2020-03-06T18:00:00Z,1583517600,2020,18,0,66.75,66.75,64.304,-9.89,-999.00,7.82,-999.0,no,yes,no,300234066316020,SVPVHI,AOML,BJARNI_SAEMUN,North
2020-03-06T21:00:00Z,1583528400,2020,21,0,66.875,66.875,64.272,-9.835,-999.00,7.8,-999.0,no,yes,no,300234066316020,SVPVHI,AOML,BJARNI_SAEMUN,North
2020-03-07T00:00:00Z,1583539200,2020,0,0,67.0,67.0,64.23,-9.846,-999.00,7.78,-999.0,no,yes,no,300234066316020,SVPVHI,AOML,BJARNI_SAEMUN,North
2020-03-07T03:00:00Z,1583550000,2020,3,0,67.125,67.125,64.206,-9.918,-999.00,7.79,-999.0,no,yes,no,300234066316020,SVPVHI,AOML,BJARNI_SAEMUN,North
2020-03-07T06:00:00Z,1583560800,2020,6,0,67.25,67.25,64.217,-9.959,-999.00,7.76,-999.0,no,yes,no,300234066316020,SVPVHI,AOML,BJARNI_SAEMUN,North
2020-03-07T09:00:00Z,1583571600,2020,9,0,67.375,67.375,64.246,-9.965,-999.00,7.8,-999.0,no,yes,no,300234066316020,SVPVHI,AOML,BJARNI_SAEMUN,North
2020-03-07T12:00:00Z,1583582400,2020,12,0,67.5,67.5,64.277,-10.03,-999.00,7.82,-999.0,no,yes,no,300234066316020,SVPVHI,AOML,BJARNI_SAEMUN,North
2020-03-07T15:00:00Z,1583593200,2020,15,0,67.625,67.625,64.303,-10.185,-999.00,7.32,-999.0,no,yes,no,300234066316020,SVPVHI,AOML,BJARNI_SAEMUN,North
2020-03-07T18:00:00Z,1583604000,2020,18,0,67.75,67.75,64.307,-10.281,-999.00,7.33,-999.0,no,yes,no,300234066316020,SVPVHI,AOML,BJARNI_SAEMUN,North
2020-03-07T21:00:00Z,1583614800,2020,21,0,67.875,67.875,64.27,-10.303,-999.00,7.42,-999.0,no,yes,no,300234066316020,SVPVHI,AOML,BJARNI_SAEMUN,North
2020-03-08T00:00:00Z,1583625600,2020,0,0,68.0,68.0,64.176,-10.308,-999.00,7.8,-999.0,no,yes,no,300234066316020,SVPVHI,AOML,BJARNI_SAEMUN,North
2020-03-08T03:00:00Z,1583636400,2020,3,0,68.125,68.125,64.086,-10.364,-999.00,7.77,-999.0,no,yes,no,300234066316020,SVPVHI,AOML,BJARNI_SAEMUN,North
2020-03-08T06:00:00Z,1583647200,2020,6,0,68.25,68.25,64.039,-10.403,-999.00,7.77,-999.0,no,yes,no,300234066316020,SVPVHI,AOML,BJARNI_SAEMUN,North
2020-03-08T09:00:00Z,1583658000,2020,9,0,68.375,68.375,63.998,-10.406,-999.00,7.76,-999.0,no,yes,no,300234066316020,SVPVHI,AOML,BJARNI_SAEMUN,North
2020-03-08T12:00:00Z,1583668800,2020,12,0,68.5,68.5,63.929,-10.436,-999.00,7.8,-999.0,no,yes,no,300234066316020,SVPVHI,AOML,BJARNI_SAEMUN,North
2020-03-08T15:00:00Z,1583679600,2020,15,0,68.625,68.625,63.867,-10.589,-999.00,7.77,-999.0,no,yes,no,300234066316020,SVPVHI,AOML,BJARNI_SAEMUN,North
2020-03-08T16:19:03Z,1583684343,2020,16,19,68.6799,68.6799,63.858,-10.676,-999.00,7.67,-999.0,no,yes,no,300234066316020,SVPVHI,AOML,BJARNI_SAEMUN,North
2020-03-08T18:00:00Z,1583690400,2020,18,0,68.75,68.75,63.86,-10.761,-999.00,7.15,-999.0,no,yes,no,300234066316020,SVPVHI,AOML,BJARNI_SAEMUN,North
2020-03-08T21:00:00Z,1583701200,2020,21,0,68.875,68.875,63.871,-10.769,-999.00,6.62,-999.0,no,yes,no,300234066316020,SVPVHI,AOML,BJARNI_SAEMUN,North
2020-03-09T00:00:00Z,1583712000,2020,0,0,69.0,69.0,63.846,-10.692,-999.00,6.99,-999.0,no,yes,no,300234066316020,SVPVHI,AOML,BJARNI_SAEMUN,North
2020-03-09T03:00:00Z,1583722800,2020,3,0,69.125,69.125,63.802,-10.703,-999.00,7.35,-999.0,no,yes,no,300234066316020,SVPVHI,AOML,BJARNI_SAEMUN,North
2020-03-09T06:00:00Z,1583733600,2020,6,0,69.25,69.25,63.788,-10.737,-999.00,7.36,-999.0,no,yes,no,300234066316020,SVPVHI,AOML,BJARNI_SAEMUN,North
2020-03-09T09:00:00Z,1583744400,2020,9,0,69.375,69.375,63.806,-10.688,-999.00,7.36,-999.0,no,yes,no,300234066316020,SVPVHI,AOML,BJARNI_SAEMUN,North
2020-03-09T12:00:00Z,1583755200,2020,12,0,69.5,69.5,63.785,-10.608,-999.00,7.43,-999.0,no,yes,no,300234066316020,SVPVHI,AOML,BJARNI_SAEMUN,North
2020-03-09T15:00:00Z,1583766000,2020,15,0,69.625,69.625,63.739,-10.666,-999.00,7.43,-999.0,no,yes,no,300234066316020,SVPVHI,AOML,BJARNI_SAEMUN,North
2020-03-09T18:00:00Z,1583776800,2020,18,0,69.75,69.75,63.739,-10.795,-999.00,7.42,-999.0,no,yes,no,300234066316020,SVPVHI,AOML,BJARNI_SAEMUN,North
2020-03-09T21:00:00Z,1583787600,2020,21,0,69.875,69.875,63.792,-10.821,-999.00,7.4,-999.0,no,yes,no,300234066316020,SVPVHI,AOML,BJARNI_SAEMUN,North
2020-03-10T00:00:00Z,1583798400,2020,0,0,70.0,70.0,63.811,-10.797,-999.00,7.2,-999.0,no,yes,no,300234066316020,SVPVHI,AOML,BJARNI_SAEMUN,North
2020-03-10T03:00:00Z,1583809200,2020,3,0,70.125,70.125,63.78,-10.868,-999.00,7.16,-999.0,no,yes,no,300234066316020,SVPVHI,AOML,BJARNI_SAEMUN,North
2020-03-10T06:00:00Z,1583820000,2020,6,0,70.25,70.25,63.77,-10.998,-999.00,7.13,-999.0,no,yes,no,300234066316020,SVPVHI,AOML,BJARNI_SAEMUN,North
2020-03-10T09:00:00Z,1583830800,2020,9,0,70.375,70.375,63.809,-11.011,-999.00,7.01,-999.0,no,yes,no,300234066316020,SVPVHI,AOML,BJARNI_SAEMUN,North
2020-03-10T12:00:00Z,1583841600,2020,12,0,70.5,70.5,63.805,-10.95,-999.00,7.19,-999.0,no,yes,no,300234066316020,SVPVHI,AOML,BJARNI_SAEMUN,North
2020-03-10T15:00:00Z,1583852400,2020,15,0,70.625,70.625,63.754,-10.988,-999.00,7.18,-999.0,no,yes,no,300234066316020,SVPVHI,AOML,BJARNI_SAEMUN,North
2020-03-10T18:00:00Z,1583863200,2020,18,0,70.75,70.75,63.723,-11.079,-999.00,7.21,-999.0,no,yes,no,300234066316020,SVPVHI,AOML,BJARNI_SAEMUN,North
2020-03-10T21:00:00Z,1583874000,2020,21,0,70.875,70.875,63.74,-11.076,-999.00,7.2,-999.0,no,yes,no,300234066316020,SVPVHI,AOML,BJARNI_SAEMUN,North
2020-03-11T00:00:00Z,1583884800,2020,0,0,71.0,71.0,63.747,-10.979,-999.00,7.2,-999.0,no,yes,no,300234066316020,SVPVHI,AOML,BJARNI_SAEMUN,North
2020-03-11T03:00:00Z,1583895600,2020,3,0,71.125,71.125,63.696,-10.969,-999.00,7.18,-999.0,no,yes,no,300234066316020,SVPVHI,AOML,BJARNI_SAEMUN,North
2020-03-11T06:00:00Z,1583906400,2020,6,0,71.25,71.25,63.66,-11.062,-999.00,7.16,-999.0,no,yes,no,300234066316020,SVPVHI,AOML,BJARNI_SAEMUN,North
2020-03-11T09:00:00Z,1583917200,2020,9,0,71.375,71.375,63.684,-11.08,-999.00,7.1,-999.0,no,yes,no,300234066316020,SVPVHI,AOML,BJARNI_SAEMUN,North
2020-03-11T12:00:00Z,1583928000,2020,12,0,71.5,71.5,63.69,-11.023,-999.00,7.38,-999.0,no,yes,no,300234066316020,SVPVHI,AOML,BJARNI_SAEMUN,North
2020-03-11T15:00:00Z,1583938800,2020,15,0,71.625,71.625,63.64,-11.077,-999.00,7.12,-999.0,no,yes,no,300234066316020,SVPVHI,AOML,BJARNI_SAEMUN,North
2020-03-11T18:00:00Z,1583949600,2020,18,0,71.75,71.75,63.589,-11.277,-999.00,7.41,-999.0,no,yes,no,300234066316020,SVPVHI,AOML,BJARNI_SAEMUN,North
2020-03-11T21:00:00Z,1583960400,2020,21,0,71.875,71.875,63.6,-11.412,-999.00,7.28,-999.0,no,yes,no,300234066316020,SVPVHI,AOML,BJARNI_SAEMUN,North
2020-03-12T00:00:00Z,1583971200,2020,0,0,72.0,72.0,63.616,-11.377,-999.00,7.11,-999.0,no,yes,no,300234066316020,SVPVHI,AOML,BJARNI_SAEMUN,North
2020-03-12T03:00:00Z,1583982000,2020,3,0,72.125,72.125,63.565,-11.378,-999.00,7.07,-999.0,no,yes,no,300234066316020,SVPVHI,AOML,BJARNI_SAEMUN,North
2020-03-12T06:00:00Z,1583992800,2020,6,0,72.25,72.25,63.498,-11.501,-999.00,7.02,-999.0,no,yes,no,300234066316020,SVPVHI,AOML,BJARNI_SAEMUN,North
2020-03-12T09:00:00Z,1584003600,2020,9,0,72.375,72.375,63.496,-11.561,-999.00,6.94,-999.0,no,yes,no,300234066316020,SVPVHI,AOML,BJARNI_SAEMUN,North
2020-03-12T12:00:00Z,1584014400,2020,12,0,72.5,72.5,63.5,-11.488,-999.00,6.98,-999.0,no,yes,no,300234066316020,SVPVHI,AOML,BJARNI_SAEMUN,North
2020-03-12T15:00:00Z,1584025200,2020,15,0,72.625,72.625,63.449,-11.452,-999.00,7.09,-999.0,no,yes,no,300234066316020,SVPVHI,AOML,BJARNI_SAEMUN,North
2020-03-12T18:00:00Z,1584036000,2020,18,0,72.75,72.75,63.387,-11.558,-999.00,7.1,-999.0,no,yes,no,300234066316020,SVPVHI,AOML,BJARNI_SAEMUN,North
2020-03-12T21:00:00Z,1584046800,2020,21,0,72.875,72.875,63.383,-11.656,-999.00,7.19,-999.0,no,yes,no,300234066316020,SVPVHI,AOML,BJARNI_SAEMUN,North
2020-03-13T00:00:00Z,1584057600,2020,0,0,73.0,73.0,63.426,-11.645,-999.00,7.22,-999.0,no,yes,no,300234066316020,SVPVHI,AOML,BJARNI_SAEMUN,North
2020-03-13T03:00:00Z,1584068400,2020,3,0,73.125,73.125,63.438,-11.604,-999.00,7.21,-999.0,no,yes,no,300234066316020,SVPVHI,AOML,BJARNI_SAEMUN,North
2020-03-13T06:00:00Z,1584079200,2020,6,0,73.25,73.25,63.426,-11.672,-999.00,7.16,-999.0,no,yes,no,300234066316020,SVPVHI,AOML,BJARNI_SAEMUN,North
2020-03-13T09:00:00Z,1584090000,2020,9,0,73.375,73.375,63.466,-11.762,-999.00,7.04,-999.0,no,yes,no,300234066316020,SVPVHI,AOML,BJARNI_SAEMUN,North
2020-03-13T12:00:00Z,1584100800,2020,12,0,73.5,73.5,63.546,-11.732,-999.00,7.07,-999.0,no,yes,no,300234066316020,SVPVHI,AOML,BJARNI_SAEMUN,North
2020-03-13T15:00:00Z,1584111600,2020,15,0,73.625,73.625,63.582,-11.617,-999.00,7.07,-999.0,no,yes,no,300234066316020,SVPVHI,AOML,BJARNI_SAEMUN,North
2020-03-13T18:00:00Z,1584122400,2020,18,0,73.75,73.75,63.552,-11.591,-999.00,7.12,-999.0,no,yes,no,300234066316020,SVPVHI,AOML,BJARNI_SAEMUN,North
2020-03-13T21:00:00Z,1584133200,2020,21,0,73.875,73.875,63.528,-11.613,-999.00,7.09,-999.0,no,yes,no,300234066316020,SVPVHI,AOML,BJARNI_SAEMUN,North
2020-03-14T00:00:00Z,1584144000,2020,0,0,74.0,74.0,63.558,-11.574,-999.00,6.99,-999.0,no,yes,no,300234066316020,SVPVHI,AOML,BJARNI_SAEMUN,North
2020-03-14T03:00:00Z,1584154800,2020,3,0,74.125,74.125,63.579,-11.473,-999.00,6.92,-999.0,no,yes,no,300234066316020,SVPVHI,AOML,BJARNI_SAEMUN,North
2020-03-14T06:00:00Z,1584165600,2020,6,0,74.25,74.25,63.539,-11.474,-999.00,6.84,-999.0,no,yes,no,300234066316020,SVPVHI,AOML,BJARNI_SAEMUN,North
2020-03-14T09:00:00Z,1584176400,2020,9,0,74.375,74.375,63.501,-11.548,-999.00,6.88,-999.0,no,yes,no,300234066316020,SVPVHI,AOML,BJARNI_SAEMUN,North
2020-03-14T12:00:00Z,1584187200,2020,12,0,74.5,74.5,63.509,-11.554,-999.00,7.03,-999.0,no,yes,no,300234066316020,SVPVHI,AOML,BJARNI_SAEMUN,North
2020-03-14T15:00:00Z,1584198000,2020,15,0,74.625,74.625,63.504,-11.485,-999.00,7.07,-999.0,no,yes,no,300234066316020,SVPVHI,AOML,BJARNI_SAEMUN,North
2020-03-14T18:00:00Z,1584208800,2020,18,0,74.75,74.75,63.449,-11.515,-999.00,7.16,-999.0,no,yes,no,300234066316020,SVPVHI,AOML,BJARNI_SAEMUN,North
2020-03-14T21:00:00Z,1584219600,2020,21,0,74.875,74.875,63.409,-11.651,-999.00,7.28,-999.0,no,yes,no,300234066316020,SVPVHI,AOML,BJARNI_SAEMUN,North
2020-03-15T00:00:00Z,1584230400,2020,0,0,75.0,75.0,63.421,-11.746,-999.00,7.12,-999.0,no,yes,no,300234066316020,SVPVHI,AOML,BJARNI_SAEMUN,North
2020-03-15T03:00:00Z,1584241200,2020,3,0,75.125,75.125,63.418,-11.752,-999.00,7.27,-999.0,no,yes,no,300234066316020,SVPVHI,AOML,BJARNI_SAEMUN,North
2020-03-15T06:00:00Z,1584252000,2020,6,0,75.25,75.25,63.378,-11.756,-999.00,7.39,-999.0,no,yes,no,300234066316020,SVPVHI,AOML,BJARNI_SAEMUN,North
2020-03-15T09:00:00Z,1584262800,2020,9,0,75.375,75.375,63.348,-11.824,-999.00,7.4,-999.0,no,yes,no,300234066316020,SVPVHI,AOML,BJARNI_SAEMUN,North
2020-03-15T12:00:00Z,1584273600,2020,12,0,75.5,75.5,63.358,-11.83,-999.00,7.45,-999.0,no,yes,no,300234066316020,SVPVHI,AOML,BJARNI_SAEMUN,North
2020-03-15T15:00:00Z,1584284400,2020,15,0,75.625,75.625,63.377,-11.764,-999.00,7.44,-999.0,no,yes,no,300234066316020,SVPVHI,AOML,BJARNI_SAEMUN,North
2020-03-15T18:00:00Z,1584295200,2020,18,0,75.75,75.75,63.371,-11.721,-999.00,7.38,-999.0,no,yes,no,300234066316020,SVPVHI,AOML,BJARNI_SAEMUN,North
2020-03-15T21:00:00Z,1584306000,2020,21,0,75.875,75.875,63.365,-11.75,-999.00,7.35,-999.0,no,yes,no,300234066316020,SVPVHI,AOML,BJARNI_SAEMUN,North
2020-03-16T00:00:00Z,1584316800,2020,0,0,76.0,76.0,63.403,-11.771,-999.00,7.22,-999.0,no,yes,no,300234066316020,SVPVHI,AOML,BJARNI_SAEMUN,North
2020-03-16T03:00:00Z,1584327600,2020,3,0,76.125,76.125,63.462,-11.757,-999.00,6.98,-999.0,no,yes,no,300234066316020,SVPVHI,AOML,BJARNI_SAEMUN,North
2020-03-16T06:00:00Z,1584338400,2020,6,0,76.25,76.25,63.498,-11.775,-999.00,7.14,-999.0,no,yes,no,300234066316020,SVPVHI,AOML,BJARNI_SAEMUN,North
2020-03-16T09:00:00Z,1584349200,2020,9,0,76.375,76.375,63.531,-11.83,-999.00,7.48,-999.0,no,yes,no,300234066316020,SVPVHI,AOML,BJARNI_SAEMUN,North
2020-03-16T12:00:00Z,1584360000,2020,12,0,76.5,76.5,63.585,-11.796,-999.00,7.47,-999.0,no,yes,no,300234066316020,SVPVHI,AOML,BJARNI_SAEMUN,North
2020-03-16T15:00:00Z,1584370800,2020,15,0,76.625,76.625,63.618,-11.655,-999.00,7.37,-999.0,no,yes,no,300234066316020,SVPVHI,AOML,BJARNI_SAEMUN,North
2020-03-16T18:00:00Z,1584381600,2020,18,0,76.75,76.75,63.622,-11.519,-999.00,7.12,-999.0,no,yes,no,300234066316020,SVPVHI,AOML,BJARNI_SAEMUN,North
2020-03-16T21:00:00Z,1584392400,2020,21,0,76.875,76.875,63.62,-11.446,-999.00,7.04,-999.0,no,yes,no,300234066316020,SVPVHI,AOML,BJARNI_SAEMUN,North
2020-03-17T00:00:00Z,1584403200,2020,0,0,77.0,77.0,63.637,-11.386,-999.00,6.91,-999.0,no,yes,no,300234066316020,SVPVHI,AOML,BJARNI_SAEMUN,North
2020-03-17T03:00:00Z,1584414000,2020,3,0,77.125,77.125,63.67,-11.277,-999.00,7.0,-999.0,no,yes,no,300234066316020,SVPVHI,AOML,BJARNI_SAEMUN,North
2020-03-17T06:00:00Z,1584424800,2020,6,0,77.25,77.25,63.682,-11.142,-999.00,6.95,-999.0,no,yes,no,300234066316020,SVPVHI,AOML,BJARNI_SAEMUN,North
2020-03-17T09:00:00Z,1584435600,2020,9,0,77.375,77.375,63.675,-11.082,-999.00,6.9,-999.0,no,yes,no,300234066316020,SVPVHI,AOML,BJARNI_SAEMUN,North
2020-03-17T12:00:00Z,1584446400,2020,12,0,77.5,77.5,63.68,-11.059,-999.00,6.9,-999.0,no,yes,no,300234066316020,SVPVHI,AOML,BJARNI_SAEMUN,North
2020-03-17T15:00:00Z,1584457200,2020,15,0,77.625,77.625,63.709,-10.989,-999.00,6.94,-999.0,no,yes,no,300234066316020,SVPVHI,AOML,BJARNI_SAEMUN,North
2020-03-17T18:00:00Z,1584468000,2020,18,0,77.75,77.75,63.728,-10.863,-999.00,6.99,-999.0,no,yes,no,300234066316020,SVPVHI,AOML,BJARNI_SAEMUN,North
2020-03-17T21:00:00Z,1584478800,2020,21,0,77.875,77.875,63.705,-10.758,-999.00,7.13,-999.0,no,yes,no,300234066316020,SVPVHI,AOML,BJARNI_SAEMUN,North
2020-03-18T00:00:00Z,1584489600,2020,0,0,78.0,78.0,63.681,-10.737,-999.00,7.06,-999.0,no,yes,no,300234066316020,SVPVHI,AOML,BJARNI_SAEMUN,North
2020-03-18T03:00:00Z,1584500400,2020,3,0,78.125,78.125,63.683,-10.703,-999.00,7.03,-999.0,no,yes,no,300234066316020,SVPVHI,AOML,BJARNI_SAEMUN,North
2020-03-18T06:00:00Z,1584511200,2020,6,0,78.25,78.25,63.683,-10.611,-999.00,7.04,-999.0,no,yes,no,300234066316020,SVPVHI,AOML,BJARNI_SAEMUN,North
2020-03-18T09:00:00Z,1584522000,2020,9,0,78.375,78.375,63.669,-10.569,-999.00,7.14,-999.0,no,yes,no,300234066316020,SVPVHI,AOML,BJARNI_SAEMUN,North
2020-03-18T12:00:00Z,1584532800,2020,12,0,78.5,78.5,63.653,-10.586,-999.00,7.18,-999.0,no,yes,no,300234066316020,SVPVHI,AOML,BJARNI_SAEMUN,North
2020-03-18T15:00:00Z,1584543600,2020,15,0,78.625,78.625,63.646,-10.595,-999.00,7.18,-999.0,no,yes,no,300234066316020,SVPVHI,AOML,BJARNI_SAEMUN,North
2020-03-18T18:00:00Z,1584554400,2020,18,0,78.75,78.75,63.646,-10.598,-999.00,7.23,-999.0,no,yes,no,300234066316020,SVPVHI,AOML,BJARNI_SAEMUN,North
2020-03-18T21:00:00Z,1584565200,2020,21,0,78.875,78.875,63.643,-10.602,-999.00,7.22,-999.0,no,yes,no,300234066316020,SVPVHI,AOML,BJARNI_SAEMUN,North
2020-03-19T00:00:00Z,1584576000,2020,0,0,79.0,79.0,63.626,-10.638,-999.00,7.17,-999.0,no,yes,no,300234066316020,SVPVHI,AOML,BJARNI_SAEMUN,North
2020-03-19T03:00:00Z,1584586800,2020,3,0,79.125,79.125,63.617,-10.685,-999.00,7.05,-999.0,no,yes,no,300234066316020,SVPVHI,AOML,BJARNI_SAEMUN,North
2020-03-19T06:00:00Z,1584597600,2020,6,0,79.25,79.25,63.626,-10.698,-999.00,6.94,-999.0,no,yes,no,300234066316020,SVPVHI,AOML,BJARNI_SAEMUN,North
2020-03-19T09:00:00Z,1584608400,2020,9,0,79.375,79.375,63.618,-10.672,-999.00,6.88,-999.0,no,yes,no,300234066316020,SVPVHI,AOML,BJARNI_SAEMUN,North
2020-03-19T12:00:00Z,1584619200,2020,12,0,79.5,79.5,63.597,-10.659,-999.00,7.01,-999.0,no,yes,no,300234066316020,SVPVHI,AOML,BJARNI_SAEMUN,North
2020-03-19T15:00:00Z,1584630000,2020,15,0,79.625,79.625,63.579,-10.68,-999.00,7.02,-999.0,no,yes,no,300234066316020,SVPVHI,AOML,BJARNI_SAEMUN,North
2020-03-19T18:00:00Z,1584640800,2020,18,0,79.75,79.75,63.577,-10.659,-999.00,6.99,-999.0,no,yes,no,300234066316020,SVPVHI,AOML,BJARNI_SAEMUN,North
2020-03-19T21:00:00Z,1584651600,2020,21,0,79.875,79.875,63.571,-10.594,-999.00,7.05,-999.0,no,yes,no,300234066316020,SVPVHI,AOML,BJARNI_SAEMUN,North
2020-03-20T00:00:00Z,1584662400,2020,0,0,80.0,80.0,63.548,-10.538,-999.00,7.24,-999.0,no,yes,no,300234066316020,SVPVHI,AOML,BJARNI_SAEMUN,North
2020-03-20T03:00:00Z,1584673200,2020,3,0,80.125,80.125,63.533,-10.508,-999.00,7.18,-999.0,no,yes,no,300234066316020,SVPVHI,AOML,BJARNI_SAEMUN,North
2020-03-20T06:00:00Z,1584684000,2020,6,0,80.25,80.25,63.548,-10.465,-999.00,6.97,-999.0,no,yes,no,300234066316020,SVPVHI,AOML,BJARNI_SAEMUN,North
2020-03-20T09:00:00Z,1584694800,2020,9,0,80.375,80.375,63.583,-10.376,-999.00,7.0,-999.0,no,yes,no,300234066316020,SVPVHI,AOML,BJARNI_SAEMUN,North
2020-03-20T12:00:00Z,1584705600,2020,12,0,80.5,80.5,63.609,-10.307,-999.00,7.09,-999.0,no,yes,no,300234066316020,SVPVHI,AOML,BJARNI_SAEMUN,North
2020-03-20T15:00:00Z,1584716400,2020,15,0,80.625,80.625,63.639,-10.272,-999.00,7.02,-999.0,no,yes,no,300234066316020,SVPVHI,AOML,BJARNI_SAEMUN,North
2020-03-20T18:00:00Z,1584727200,2020,18,0,80.75,80.75,63.687,-10.192,-999.00,6.99,-999.0,no,yes,no,300234066316020,SVPVHI,AOML,BJARNI_SAEMUN,North
2020-03-20T21:00:00Z,1584738000,2020,21,0,80.875,80.875,63.737,-10.093,-999.00,6.98,-999.0,no,yes,no,300234066316020,SVPVHI,AOML,BJARNI_SAEMUN,North
2020-03-21T00:00:00Z,1584748800,2020,0,0,81.0,81.0,63.763,-10.029,-999.00,6.95,-999.0,no,yes,no,300234066316020,SVPVHI,AOML,BJARNI_SAEMUN,North
2020-03-21T03:00:00Z,1584759600,2020,3,0,81.125,81.125,63.777,-9.995,-999.00,7.03,-999.0,no,yes,no,300234066316020,SVPVHI,AOML,BJARNI_SAEMUN,North
2020-03-21T06:00:00Z,1584770400,2020,6,0,81.25,81.25,63.822,-9.898,-999.00,6.89,-999.0,no,yes,no,300234066316020,SVPVHI,AOML,BJARNI_SAEMUN,North
2020-03-21T09:00:00Z,1584781200,2020,9,0,81.375,81.375,63.87,-9.78,-999.00,6.44,-999.0,no,yes,no,300234066316020,SVPVHI,AOML,BJARNI_SAEMUN,North
2020-03-21T12:00:00Z,1584792000,2020,12,0,81.5,81.5,63.904,-9.734,-999.00,6.46,-999.0,no,yes,no,300234066316020,SVPVHI,AOML,BJARNI_SAEMUN,North
2020-03-21T15:00:00Z,1584802800,2020,15,0,81.625,81.625,63.931,-9.702,-999.00,6.66,-999.0,no,yes,no,300234066316020,SVPVHI,AOML,BJARNI_SAEMUN,North
2020-03-21T18:00:00Z,1584813600,2020,18,0,81.75,81.75,63.97,-9.677,-999.00,6.1,-999.0,no,yes,no,300234066316020,SVPVHI,AOML,BJARNI_SAEMUN,North
2020-03-21T21:00:00Z,1584824400,2020,21,0,81.875,81.875,64.017,-9.683,-999.00,5.93,-999.0,no,yes,no,300234066316020,SVPVHI,AOML,BJARNI_SAEMUN,North
2020-03-22T00:00:00Z,1584835200,2020,0,0,82.0,82.0,64.029,-9.724,-999.00,6.41,-999.0,no,yes,no,300234066316020,SVPVHI,AOML,BJARNI_SAEMUN,North
2020-03-22T03:00:00Z,1584846000,2020,3,0,82.125,82.125,64.027,-9.777,-999.00,6.8,-999.0,no,yes,no,300234066316020,SVPVHI,AOML,BJARNI_SAEMUN,North
2020-03-22T06:00:00Z,1584856800,2020,6,0,82.25,82.25,64.034,-9.813,-999.00,6.81,-999.0,no,yes,no,300234066316020,SVPVHI,AOML,BJARNI_SAEMUN,North